Tracking 21476 objects as of 30-Sep-2020
HD Live streaming from Space Station
objects crossing your sky now

BREEZE-M DEB (TANK)

Track BREEZE-M DEB (TANK) now!
10-day predictions


NORAD ID: 40366
Int'l Code: 2014-089C
Perigee: 326.1 km
Apogee: 14,944.7 km
Inclination: 49.5 °
Period: 274.9 minutes
Semi major axis: 14006 km
RCS: Unknown
Launch date: December 27, 2014
Source: Commonwealth of Independent States (former USSR) (CIS)
Launch site: TYURATAM MISSILE AND SPACE COMPLEX (TTMTR)

Note: This is SATELLITE DEBRIS
aabbcc
Your satellite tracking list
Your tracking list is empty




NASA's NSSDC Master Catalog

Two Line Element Set (TLE):
1 40366U 14089C   20273.21333716 +.00001374 +00000-0 +35049-3 0  9990
2 40366 049.5464 242.6711 5218531 297.7730 019.2032 05.23735821109302
Source of the keplerian elements: AFSPC